When you browse on this site, cookies collect data to enhance your experience and personalize the content and advertising you see.
Visit our Privacy Policy to learn more. By continuing to use the site, you agree to this use of cookies and data.
  • In Hungary
  • List of Countries
  • For 7 days
  • Water Temperature
  • Satellite Maps
  • Weather Map
  • News
  • Weather Widgets
  • user-avatar
    Login

    Hourly Weather Vechirky

    Today, 21 July, Sunday

    Time Temperature Precipitation Wind Pressure Humidity
    00:00 +20°C° 0 mm 1 mps 753 mmHg 77%
    01:00 +19°C° 0 mm 1 mps 753 mmHg 77%
    02:00 +19°C° 0 mm 1 mps 753 mmHg 78%
    03:00 +19°C° 0 mm 1 mps 753 mmHg 78%
    04:00 +19°C° 0 mm 1 mps 753 mmHg 79%
    05:00 +19°C° 0 mm 1 mps 753 mmHg 79%
    06:00 +20°C° 0.1 mm 1 mps 753 mmHg 75%
    07:00 +22°C° 0.1 mm 1 mps 753 mmHg 70%
    08:00 +24°C° 0.1 mm 1 mps 753 mmHg 66%
    09:00 +25°C° 0 mm 1 mps 753 mmHg 61%
    10:00 +26°C° 0 mm 1 mps 753 mmHg 56%
    11:00 +28°C° 0 mm 2 mps 753 mmHg 52%
    12:00 +28°C° 0 mm 2 mps 753 mmHg 49%
    13:00 +29°C° 0 mm 2 mps 753 mmHg 47%
    14:00 +30°C° 0 mm 2 mps 753 mmHg 44%
    15:00 +29°C° 0 mm 2 mps 753 mmHg 47%
    16:00 +29°C° 0 mm 2 mps 752 mmHg 49%
    17:00 +29°C° 0 mm 2 mps 752 mmHg 51%
    18:00 +27°C° 0 mm 2 mps 752 mmHg 57%
    19:00 +25°C° 0 mm 2 mps 752 mmHg 63%
    20:00 +23°C° 0 mm 2 mps 752 mmHg 69%
    21:00 +22°C° 0.1 mm 1 mps 752 mmHg 72%
    22:00 +21°C° 0.1 mm 1 mps 752 mmHg 76%
    23:00 +21°C° 0.1 mm 1 mps 752 mmHg 79%

    Tomorrow, 22 July, Monday

    Time Temperature Precipitation Wind Pressure Humidity
    00:00 +20°C° 0 mm 1 mps 752 mmHg 79%
    01:00 +20°C° 0 mm 1 mps 752 mmHg 80%
    02:00 +20°C° 0 mm 1 mps 752 mmHg 81%
    03:00 +20°C° 0 mm 1 mps 752 mmHg 81%
    04:00 +20°C° 0 mm 1 mps 752 mmHg 82%
    05:00 +18°C° 0 mm 2 mps 751 mmHg 82%
    06:00 +20°C° 0 mm 2 mps 751 mmHg 77%
    07:00 +23°C° 0 mm 2 mps 751 mmHg 73%
    08:00 +25°C° 0 mm 3 mps 751 mmHg 68%
    09:00 +26°C° 0.4 mm 3 mps 751 mmHg 65%
    10:00 +27°C° 0.4 mm 3 mps 751 mmHg 62%
    11:00 +29°C° 0.4 mm 4 mps 751 mmHg 59%
    12:00 +27°C° 1.9 mm 4 mps 750 mmHg 66%
    13:00 +26°C° 1.9 mm 5 mps 750 mmHg 73%
    14:00 +25°C° 1.9 mm 5 mps 750 mmHg 80%
    15:00 +23°C° 1 mm 4 mps 750 mmHg 81%
    16:00 +24°C° 1 mm 3 mps 750 mmHg 82%
    17:00 +24°C° 1 mm 3 mps 749 mmHg 83%
    18:00 +22°C° 0.5 mm 3 mps 749 mmHg 86%
    19:00 +21°C° 0.5 mm 3 mps 749 mmHg 90%
    20:00 +20°C° 0.5 mm 4 mps 749 mmHg 93%
    21:00 +19°C° 0 mm 3 mps 749 mmHg 94%
    22:00 +19°C° 0 mm 3 mps 750 mmHg 95%
    23:00 +18°C° 0 mm 3 mps 750 mmHg 96%

    Day after tomorrow, 23 July, Tuesday

    Time Temperature Precipitation Wind Pressure Humidity
    00:00 +18°C° 0 mm 3 mps 749 mmHg 96%
    01:00 +18°C° 0 mm 3 mps 749 mmHg 95%
    02:00 +17°C° 0 mm 3 mps 749 mmHg 95%
    03:00 +17°C° 0 mm 3 mps 749 mmHg 95%
    04:00 +17°C° 0 mm 3 mps 749 mmHg 96%
    05:00 +17°C° 0 mm 4 mps 749 mmHg 96%
    06:00 +17°C° 0 mm 4 mps 749 mmHg 95%
    07:00 +17°C° 0 mm 4 mps 749 mmHg 93%
    08:00 +17°C° 0 mm 5 mps 749 mmHg 92%
    09:00 +18°C° 0 mm 4 mps 749 mmHg 90%
    10:00 +19°C° 0 mm 4 mps 749 mmHg 88%
    11:00 +19°C° 0 mm 4 mps 749 mmHg 86%
    12:00 +19°C° 0 mm 4 mps 749 mmHg 84%
    13:00 +20°C° 0 mm 4 mps 749 mmHg 81%
    14:00 +20°C° 0 mm 4 mps 749 mmHg 79%
    15:00 +21°C° 0 mm 4 mps 749 mmHg 78%
    16:00 +21°C° 0 mm 4 mps 749 mmHg 76%
    17:00 +21°C° 0 mm 4 mps 749 mmHg 75%
    18:00 +20°C° 0 mm 4 mps 749 mmHg 79%
    19:00 +19°C° 0 mm 3 mps 749 mmHg 82%
    20:00 +18°C° 0 mm 3 mps 749 mmHg 86%
    21:00 +18°C° 0 mm 3 mps 749 mmHg 89%
    22:00 +17°C° 0 mm 3 mps 749 mmHg 92%
    23:00 +16°C° 0 mm 3 mps 749 mmHg 95%

    24 July, Wednesday

    Time Temperature Precipitation Wind Pressure Humidity
    00:00 +16°C° 0 mm 3 mps 749 mmHg 96%
    01:00 +14°C° 0 mm 3 mps 748 mmHg 96%
    02:00 +15°C° 0 mm 2 mps 748 mmHg 97%
    03:00 +15°C° 0 mm 2 mps 748 mmHg 97%
    04:00 +15°C° 0 mm 2 mps 748 mmHg 97%
    05:00 +15°C° 0 mm 2 mps 748 mmHg 98%
    06:00 +16°C° 0 mm 2 mps 748 mmHg 93%
    07:00 +17°C° 0 mm 3 mps 748 mmHg 88%
    08:00 +19°C° 0 mm 3 mps 748 mmHg 82%
    09:00 +20°C° 0.1 mm 3 mps 748 mmHg 80%
    10:00 +20°C° 0.1 mm 3 mps 748 mmHg 78%
    11:00 +21°C° 0.1 mm 4 mps 748 mmHg 76%
    12:00 +22°C° 0.2 mm 4 mps 748 mmHg 74%
    13:00 +22°C° 0.2 mm 5 mps 748 mmHg 72%
    14:00 +23°C° 0.2 mm 5 mps 748 mmHg 71%
    15:00 +23°C° 0.6 mm 5 mps 748 mmHg 74%
    16:00 +22°C° 0.6 mm 5 mps 748 mmHg 78%
    17:00 +22°C° 0.6 mm 5 mps 748 mmHg 81%
    18:00 +21°C° 0.6 mm 5 mps 748 mmHg 85%
    19:00 +20°C° 0.6 mm 5 mps 748 mmHg 88%
    20:00 +19°C° 0.6 mm 4 mps 748 mmHg 92%
    21:00 +19°C° 0.2 mm 5 mps 748 mmHg 92%
    22:00 +17°C° 0.2 mm 5 mps 748 mmHg 93%
    23:00 +17°C° 0.2 mm 5 mps 748 mmHg 94%

    25 July, Thursday

    Time Temperature Precipitation Wind Pressure Humidity
    00:00 +17°C° 0.1 mm 5 mps 748 mmHg 95%
    01:00 +17°C° 0.1 mm 5 mps 748 mmHg 95%
    02:00 +16°C° 0.1 mm 5 mps 748 mmHg 96%
    03:00 +16°C° 0.1 mm 5 mps 748 mmHg 96%
    04:00 +16°C° 0.1 mm 5 mps 748 mmHg 95%
    05:00 +17°C° 0.1 mm 6 mps 748 mmHg 95%
    06:00 +17°C° 0.1 mm 6 mps 748 mmHg 93%
    07:00 +17°C° 0.1 mm 6 mps 749 mmHg 92%
    08:00 +19°C° 0.1 mm 6 mps 749 mmHg 91%
    09:00 +19°C° 0 mm 6 mps 749 mmHg 90%
    10:00 +19°C° 0 mm 6 mps 749 mmHg 89%
    11:00 +19°C° 0 mm 6 mps 749 mmHg 88%
    12:00 +20°C° 0.2 mm 6 mps 749 mmHg 85%
    13:00 +21°C° 0.2 mm 6 mps 749 mmHg 82%
    14:00 +21°C° 0.2 mm 6 mps 749 mmHg 80%
    15:00 +21°C° 0.1 mm 6 mps 749 mmHg 81%
    16:00 +21°C° 0.1 mm 6 mps 749 mmHg 82%
    17:00 +21°C° 0.1 mm 6 mps 749 mmHg 83%
    18:00 +20°C° 0 mm 6 mps 749 mmHg 86%
    19:00 +20°C° 0 mm 5 mps 749 mmHg 88%
    20:00 +19°C° 0 mm 5 mps 750 mmHg 90%
    21:00 +19°C° 0 mm 5 mps 750 mmHg 91%
    22:00 +17°C° 0 mm 5 mps 750 mmHg 91%
    23:00 +17°C° 0 mm 5 mps 750 mmHg 91%

    26 July, Friday

    Time Temperature Precipitation Wind Pressure Humidity
    00:00 +17°C° 0 mm 5 mps 750 mmHg 91%
    01:00 +17°C° 0 mm 5 mps 750 mmHg 90%
    02:00 +17°C° 0 mm 5 mps 750 mmHg 90%
    03:00 +17°C° 0 mm 5 mps 750 mmHg 91%
    04:00 +17°C° 0 mm 5 mps 750 mmHg 92%
    05:00 +18°C° 0 mm 4 mps 750 mmHg 93%
    06:00 +19°C° 0 mm 5 mps 750 mmHg 90%
    07:00 +19°C° 0 mm 5 mps 750 mmHg 87%
    08:00 +20°C° 0 mm 5 mps 750 mmHg 84%
    09:00 +20°C° 0.1 mm 4 mps 750 mmHg 82%
    10:00 +21°C° 0.1 mm 4 mps 750 mmHg 81%
    11:00 +21°C° 0.1 mm 4 mps 750 mmHg 80%
    12:00 +22°C° 0.2 mm 5 mps 750 mmHg 77%
    13:00 +22°C° 0.2 mm 5 mps 750 mmHg 75%
    14:00 +23°C° 0.2 mm 6 mps 749 mmHg 73%
    15:00 +23°C° 0.1 mm 6 mps 749 mmHg 70%
    16:00 +25°C° 0.1 mm 5 mps 749 mmHg 68%
    17:00 +25°C° 0.1 mm 5 mps 749 mmHg 66%
    18:00 +23°C° 0.1 mm 4 mps 749 mmHg 72%
    19:00 +21°C° 0.1 mm 4 mps 749 mmHg 79%
    20:00 +20°C° 0.1 mm 3 mps 749 mmHg 85%
    21:00 +20°C° 0 mm 3 mps 749 mmHg 86%
    22:00 +19°C° 0 mm 3 mps 749 mmHg 87%
    23:00 +18°C° 0 mm 3 mps 749 mmHg 89%
    Show more